Location: Gull Harbor
(47.1000°N, 122.9000°W)
Time: 23:01:36
(UTC-07:00)

Envisat - Pass Details

Date: 22 March 2019
Orbit: 764 x 766 km, 98.1° (Epoch: 21 October)

Event Time Altitude Azimuth Distance (km) Brightness Sun altitude
Rises 19:58:05 0° 174° (S) 3,216 6.1 -6.1°
Reaches altitude 10° 20:00:24 10° 178° (S) 2,295 5.4 -6.5°
Maximum altitude 20:05:24 62° 259° (W) 860 3.6 -7.3°
Drops below altitude 10° 20:10:28 10° 340° (NNW) 2,313 5.9 -8.2°
Sets 20:12:49 0° 344° (NNW) 3,244 6.6 -8.6°
